Weather in Noida

India     28°34′24″N   77°21′18″E
temp.,
°C
wind,
m/s
gust,
m/s
humid.,
%
clouds,
%
prec.,
mm/h
press.,
hPa
HPBL,
m
19 may, wed
wed1923:30+28e3646100 0.0 1006549
02:30+28se3547100 0.1 10051148
05:30+23se3474100 1.5 1005448
08:30+23e4780100 4.2 1007753
11:30+23ene5877100 10.9 1006623
14:30+24ene5873100 2.0 10041160
17:30+25e5967100 2.6 1001976
20:30+25ese71173100 2.1 1001793
20 may, thu
thu2023:30+24ese71482100 8.4 1001786
02:30+24ese61383100 1.8 1000779
05:30+23ese5108598 2.5 1001668
08:30+24se3684100 1.5 1003757
11:30+24nnw797799 6.8 1005785
14:30+23nne5973100 3.4 1004293
17:30+23nnw4876100 3.7 1004480
20:30+23n37649 0.0 1005421
21 may, fri
fri2123:30+23nnw23730 0.0 1006230
02:30+23nnw12700 0.0 1004125
05:30+23n12670 0.0 1005103
08:30+27nne23480 0.0 1007358
11:30+33w11323 0.0 1006683
14:30+36nw34262 0.0 10041819
17:30+36nnw34260 0.0 10022344
20:30+34nne23310 0.0 1002197
22 may, sat
sat2223:30+32e23370 0.0 1002126
02:30+31ese11410 0.0 100228
05:30+29e11450 0.0 100351
08:30+32ssw24370 0.0 1004508
11:30+37w46240 0.0 10031705
14:30+40w46200 0.0 10013277
17:30+40w56155 0.0 9994399
20:30+38w37170 0.0 999412
23 may, sun
sun2323:30+35wnw35230 0.0 1001201
02:30+33w711290 0.0 1001743
05:30+31nw49330 0.0 1002373
08:30+32nnw812290 0.0 1004879
11:30+37nnw45200 0.0 10031502
14:30+40nw66160 0.0 10024068
17:30+38nw66150 0.0 10003441
20:30+36nw461888 0.0 10021273